EST,Max TemperatureF,Mean TemperatureF,Min TemperatureF,Max Dew PointF,MeanDew PointF,Min DewpointF,Max Humidity, Mean Humidity, Min Humidity, Max Sea Level PressureIn, Mean Sea Level PressureIn, Min Sea Level PressureIn, Max VisibilityMiles, Mean VisibilityMiles, Min VisibilityMiles, Max Wind SpeedMPH, Mean Wind SpeedMPH, Max Gust SpeedMPH,PrecipitationIn, CloudCover, Events, WindDirDegrees
2013-12-1,37,29,20,28,22,19,92,81,70,30.32,30.10,29.97,10,6,3,6,1,,0.00,6,,49
2013-12-2,47,39,31,35,33,28,89,77,65,29.96,29.89,29.82,10,6,2,5,1,,0.00,7,,83
2013-12-3,50,42,34,39,35,33,100,83,66,30.00,29.93,29.86,7,3,2,7,1,8,0.01,4,,51
2013-12-4,50,40,29,43,35,29,100,86,71,30.09,30.02,29.96,5,2,0,7,2,10,0.00,3,Fog,8
2013-12-5,56,51,45,54,50,44,100,93,86,30.03,29.95,29.91,7,2,0,16,4,22,0.72,7,Fog-Rain,259
2013-12-6,39,36,32,35,32,30,96,88,79,30.22,30.08,29.93,10,7,1,10,7,26,0.65,8,Rain-Snow,351
2013-12-7,32,27,21,30,23,14,92,80,68,30.58,30.38,30.16,10,9,2,18,9,23,T,6,Snow,333
2013-12-8,26,22,17,24,19,12,96,84,71,30.58,30.42,30.25,10,4,0,13,4,19,T,7,Fog-Rain-Snow,104
2013-12-9,39,33,26,34,29,25,100,88,75,30.24,30.07,29.98,10,6,2,26,9,33,T,7,Rain-Snow,213
2013-12-10,33,28,23,26,19,10,78,64,50,30.17,30.04,29.96,10,9,2,33,14,44,T,5,Snow,286
2013-12-11,31,26,20,22,13,9,88,65,42,30.35,30.27,30.18,10,8,2,28,11,35,T,3,Snow,265
2013-12-12,23,19,15,16,7,2,81,63,45,30.43,30.31,30.18,10,9,4,32,14,43,T,5,Snow,285
2013-12-13,33,26,19,18,13,5,63,55,47,30.30,30.23,30.17,10,10,10,29,10,38,0.00,1,,245
2013-12-14,32,30,28,28,26,18,100,79,58,30.30,30.05,29.70,10,2,0,13,5,19,T,8,Fog-Rain-Snow,91
2013-12-15,37,31,24,31,25,13,100,82,63,29.94,29.72,29.58,10,6,1,28,15,40,0.02,8,Rain-Snow,278
2013-12-16,24,21,17,20,13,8,81,69,57,30.17,30.09,29.95,10,8,2,29,7,35,T,8,Snow,304
2013-12-17,38,28,18,29,22,19,100,85,70,30.11,29.98,29.88,10,4,0,15,4,19,T,7,Fog-Snow,353
2013-12-18,29,25,21,25,20,15,88,76,63,30.20,30.09,29.94,10,8,1,24,11,29,T,7,Snow,262
2013-12-19,49,37,24,34,26,13,70,60,49,30.12,30.09,30.05,10,10,10,22,10,27,0.00,0,,230
2013-12-20,52,45,38,46,35,24,83,64,45,30.06,29.99,29.94,10,10,10,15,11,20,T,7,Rain,205
2013-12-21,61,55,49,54,49,45,100,89,77,29.94,29.89,29.80,10,8,2,16,6,20,0.32,7,Rain,198
2013-12-22,65,60,55,58,53,50,84,75,65,29.95,29.84,29.68,10,9,2,29,14,36,0.11,4,Rain,218
2013-12-23,58,45,31,51,37,19,89,74,59,30.25,30.09,29.94,10,10,9,25,13,32,0.01,8,Rain,296
2013-12-24,32,23,14,24,18,6,85,71,56,30.48,30.25,30.17,10,7,0,25,13,33,T,7,Fog-Snow,295
2013-12-25,26,20,13,12,10,7,80,65,50,30.54,30.44,30.30,10,10,10,15,7,19,0.00,4,,230
2013-12-26,36,30,24,26,18,12,85,66,47,30.35,30.23,30.14,10,8,2,24,9,32,T,7,Snow,228
2013-12-27,41,32,22,24,18,13,74,54,33,30.37,30.33,30.28,10,10,10,21,10,26,0.00,2,,231
2013-12-28,54,43,31,26,23,20,63,48,32,30.27,30.19,30.07,10,10,10,18,12,24,0.00,0,,218
2013-12-29,45,41,37,39,36,19,100,69,37,30.05,29.75,29.60,10,5,0,16,6,20,0.73,8,Fog-Rain,21
2013-12-30,41,32,23,37,23,12,92,78,63,30.19,30.05,29.83,10,7,2,21,10,28,0.02,8,Rain-Snow,302
2013-12-31,28,25,22,23,19,13,84,76,68,30.28,30.11,30.01,10,5,1,30,13,42,T,7,Snow,254